Aérodrome :
LOGIN :

S'inscrire | Disclaimer

   EN    FR    IT 

 










Légende :    VFR   VFR Marginal   IFR   IFR Intensif   IFR Très Intensif
Visi : 
Plafond : 
>= 8 km
>= 3000ft
5 à 8 km
1000 à 3000 ft
1500m à 5 km
500 à 1000 ft
800 à 1500m
200 à 500 ft
< 800m
< 200 ft
Symboles :   Orages  Brouillard  Fortes neiges  Fortes précipitations  Vent > 20 kt
SIGMETs :   Divers  Orages  Givrage  Turbulence  Onde Orograph.  Cendres Volcan.







- Altitude de l'aérodrome : 12 ft
- Code IATA : NCE
- Voir les cartes d'approche


LFMN - Nice

DERNIER METAR :
  • 162100Z 33008KT CAVOK 10/02 Q1029 NOSIG

METARs EXPIRÉS :
  • 162030Z 33008KT CAVOK 10/02 Q1029 NOSIG
  • 162000Z 33007KT CAVOK 10/02 Q1029 NOSIG
  • 161930Z 33006KT CAVOK 10/03 Q1029 NOSIG
  • 161900Z 32008KT CAVOK 10/04 Q1029 NOSIG
  • 161830Z 32005KT CAVOK 11/04 Q1029 NOSIG

TAF TAF LFMN
Valide du 16 à 21h jusqu'au 18 à 03h UTC


162000Z 1621/1803 33010KT CAVOK
PROB40
TEMPO 1700/1710 3000 BR BKN010
BECMG 1711/1713 18006KT
BECMG 1719/1721 33010KT
PROB40
TEMPO 1721/1803 3000 BR BKN010
ATIS : +33 4 93 17 21 16
Pas de NOTAMs connus pour ce terrain.



MET'MAP, la Météo Aéronautique d'un coup d'oeil ! - Copyright ORBIFLY Décembre 2007 - Disclaimer

ORBIFLY MET'MAP TEAM :

Programmation & Développement : Alexandra Zaïnal
Conception & Développement : Baudouin d'Aumeries
Co-Programmation & Développement : Marc-Olivier Méhu
Soutien technique & logistique : Manuel Goepfert

Contact : metmap@orbifly.com




SOURCES & CREDITS :

   NOAA